This is the latest recevied weather packets stored in our database for station/object KN4PLO. If no packets are shown the sender has not sent any weather packets the latest 1 day(s).
| Time | Temp. | Humidity | Pressure | Rain* | Wind** | Luminosity | Snow |
|---|---|---|---|---|---|---|---|
| 1778027873 | 21.67° C | 100% | - | 0 mm | 3.13 m/s, 167° | - | - |
| 1778027844 | 21.67° C | 100% | - | 0 mm | 2.24 m/s, 167° | - | - |
| 1778027573 | 21.67° C | 100% | - | 0 mm | 2.68 m/s, 172° | - | - |
| 1778027273 | 21.67° C | 100% | - | 0 mm | 2.24 m/s, 153° | - | - |
| 1778027244 | 21.67° C | 100% | - | 0 mm | 0.89 m/s, 163° | - | - |
| 1778026973 | 22.22° C | 100% | - | 0 mm | 1.34 m/s, 207° | - | - |
| 1778026673 | 22.22° C | 100% | - | 0 mm | 1.79 m/s, 205° | - | - |
| 1778026644 | 22.22° C | 100% | - | 0 mm | 2.24 m/s, 203° | - | - |
| 1778026373 | 22.22° C | 100% | - | 0 mm | 2.68 m/s, 163° | - | - |
| 1778026073 | 22.22° C | 100% | - | 0 mm | 3.58 m/s, 177° | - | - |
| 1778026044 | 22.22° C | 100% | - | 0 mm | 1.34 m/s, 184° | - | - |
| 1778025773 | 22.22° C | 100% | - | 0 mm | 2.68 m/s, 210° | - | - |
| 1778025473 | 22.22° C | 100% | - | 0 mm | 1.34 m/s, 186° | - | - |
| 1778025444 | 22.22° C | 100% | - | 0 mm | 1.79 m/s, 215° | - | - |
| 1778025173 | 22.22° C | 100% | - | 0 mm | 3.13 m/s, 195° | - | - |
| 1778024873 | 22.78° C | 100% | - | 0 mm | 0.45 m/s, 200° | - | - |
| 1778024844 | 22.78° C | 100% | - | 0 mm | 0.45 m/s, 205° | - | - |
| 1778024573 | 22.78° C | 100% | - | 0 mm | 2.24 m/s, 233° | - | - |
| 1778024273 | 22.78° C | 100% | - | 0 mm | 3.13 m/s, 196° | - | - |
| 1778024244 | 22.78° C | 100% | - | 0 mm | 5.36 m/s, 203° | - | - |
| 1778023973 | 22.78° C | 100% | - | 0 mm | 4.02 m/s, 195° | - | - |
| 1778023673 | 22.78° C | 100% | - | 0 mm | 2.24 m/s, 168° | - | - |
| 1778023644 | 22.78° C | 100% | - | 0 mm | 3.58 m/s, 199° | - | - |
| 1778023373 | 22.78° C | 100% | - | 0 mm | 4.92 m/s, 242° | - | - |
| 1778023073 | 23.33° C | 100% | - | 0 mm | 2.68 m/s, 176° | - | - |
* Rain latest hour (hover to see other rain measurements)
** Current wind speed in m/s (hover to see current wind gust speed)